Location: Observatoire
(46.1952°N, 5.3391°E)
Time: 03:40:35
(UTC+01:00)

Explorer 7 - Pass Details

Date: 26 February 2026
Orbit: 430 x 541 km, 50.2° (Epoch: 13 March)

Event Time Altitude Azimuth Distance (km) Brightness Sun altitude
Rises 18:57:52 0° 285° (WNW) 2,490 11.7 -7.2°
Reaches altitude 10° 19:00:28 10° 266° (W) 1,635 11.0 -7.7°
Maximum altitude 19:03:02 18° 222° (SW) 1,244 9.3 -8.1°
Drops below altitude 10° 19:05:38 10° 178° (S) 1,675 9.3 -8.6°
Sets 19:08:21 0° 159° (SSE) 2,579 10.1 -9.0°
